Regional Weather Roundup
Issued by NWS

Home | Current Version | Previous Version | Graphics & Text | Print | Product List | Glossary On
Versions: 1 2 3 4 5 6 7 8 9 10 11 12 13 14 15 16 17 18 19 20 21 22 23 24 25 26 27 28 29 30 31 32 33 34 35 36 37 38 39 40 41 42 43 44 45 46 47 48 49 50
000
ASUS43 KMKX 241620
RWRWI

WISCONSIN REGIONAL WEATHER ROUNDUP
NATIONAL WEATHER SERVICE MILWAUKEE/SULLIVAN WI
1000 AM CST TUE JAN 24 2017

NOTE: "FAIR" INDICATES FEW OR NO CLOUDS BELOW 12,000 FEET WITH NO
SIGNIFICANT WEATHER AND/OR OBSTRUCTIONS TO VISIBILITY.

WIZ001-002-006>008-014>016-023>028-241700-
NORTHWEST WISCONSIN

CITY           SKY/WX    TMP DP  RH WIND       PRES   REMARKS
SUPERIOR ARPT  CLOUDY    33  26  76 NW6       29.90S WCI  27
ASHLAND        CLOUDY    34  30  85 SW3       29.88S
HAYWARD        CLOUDY    33  29  85 NW5       29.87S WCI  29
SIREN          CLOUDY    32  28  87 CALM      29.90R
CUMBERLAND     CLOUDY    32  28  86 CALM      29.87S
RICE LAKE      CLOUDY    33  32  96 CALM      29.89S
CHETEK         CLOUDY    32  31  93 CALM      29.88S
LADYSMITH      CLOUDY    33  32  97 CALM      29.88F FOG
EAU CLAIRE     CLOUDY    32  31  96 CALM      29.88S FOG
MENOMONIE        N/A    N/A N/A N/A MISG        N/A
NEW RICHMOND   CLOUDY    31  28  90 CALM      29.89F
OSCEOLA        CLOUDY    32  27  82 CALM      29.93S
$$

WIZ003>005-009-010-017-018-241700-
NORTH CENTRAL WISCONSIN

CITY           SKY/WX    TMP DP  RH WIND       PRES   REMARKS
MANITOWISH WTR CLOUDY    32  32 100 CALM      29.84S
ARBOR VITAE    CLOUDY    34  32  92 CALM      29.84S
WOODRUFF       CLOUDY    34  32  92 CALM      29.84S
RHINELANDER    CLOUDY    35  31  85 NW6       29.84F WCI  30
EAGLE RIVER    CLOUDY    33  33  99 NW6       29.84R WCI  27
LAND O LAKES   CLOUDY    33  33 100 N6        29.85S WCI  27
PHILLIPS       CLOUDY    33  31  94 CALM      29.85S
TOMAHAWK       CLOUDY    33  29  86 NW3       29.86S
MEDFORD        CLOUDY    32  30  92 NW5       29.85S WCI  27
MERRILL        CLOUDY    34  29  83 N7          N/A  WCI  28
$$

WIZ029-030-035-036-043>047-241700-
CENTRAL WISCONSIN

CITY           SKY/WX    TMP DP  RH WIND       PRES   REMARKS
WAUSAU         CLOUDY    34  29  82 NW8       29.84F WCI  27
MOSINEE        CLOUDY    34  34 100 NW9       29.87S WCI  26
MARSHFIELD     CLOUDY    34  30  85 NW6       29.85S WCI  29
STEVENS POINT  CLOUDY    33  30  88 NW3       29.87S
WAUPACA        CLOUDY    38  33  82 NW5       29.87S WCI  34
WAUTOMA        CLOUDY    36  35  96 W7        29.88S WCI  30
WISC RAPIDS    PTSUNNY   35  31  85 NW3       29.88S
CAMP DOUGLAS   CLOUDY    36  34  93 CALM      29.86F
$$

WIZ011>013-019>022-031-037>040-048>050-241700-
NORTHEAST WISCONSIN

CITY           SKY/WX    TMP DP  RH WIND       PRES   REMARKS
ANTIGO         CLOUDY    33  31  92 NW7       29.84F WCI  27
SHAWANO        CLOUDY    38  35  87 NW5       29.87S WCI  35
OCONTO         CLOUDY    35  35  99 W5        29.85S WCI  31
STURGEON BAY   CLOUDY    35  35 100 NW7       29.85S WCI  29
GREEN BAY      CLOUDY    39  36  89 W7        29.86R WCI  34
MANITOWOC      CLOUDY    37  35  92 MISG      29.87R
APPLETON       CLOUDY    36  36 100 NW7       29.85R FOG     WCI  30
CLINTONVILLE   CLOUDY    36  32  87 NW7       29.86S WCI  30
OSHKOSH        CLOUDY    36  34  92 W5        29.87S WCI  32
$$

WIZ032>034-041-042-053>061-241700-
SOUTHWEST WISCONSIN

CITY           SKY/WX    TMP DP  RH WIND       PRES   REMARKS
LA CROSSE      CLOUDY    36  31  82 CALM      29.88F
SPARTA         CLOUDY    32  32 100 N3        29.88F FOG
VIROQUA        CLOUDY    33  33 100 CALM      29.85S
BOSCOBEL       CLOUDY    36  32  85 SW3       29.89S
PRAIRIE DU CHI CLOUDY    34  32  92 CALM      29.89S
PLATTEVILLE    CLOUDY    33  33 100 CALM      29.88S
$$

WIZ056-057-062-063-064-067-068-241700-
SOUTH CENTRAL WISCONSIN

CITY           SKY/WX    TMP DP  RH WIND       PRES   REMARKS
REEDSBURG      CLOUDY    34  32  92 CALM      29.87S
BARABOO/DELLS  CLOUDY    35  31  87 CALM      29.87S
LONE ROCK      CLOUDY    35  32  88 CALM      29.89S
MINERAL POINT  CLOUDY    36  32  87 CALM      29.87S
MADISON        CLOUDY    36  31  82 N3        29.88F
MIDDLETON      CLOUDY    36  34  91 N3        29.88S
WATERTOWN      CLOUDY    35  35  98 NW3       29.87F
MONROE         CLOUDY    34  32  93 CALM      29.88R
JANESVILLE     CLOUDY    36  34  93 N5        29.88S WCI  32
$$

WIZ051-052-058>065-066-070>072-241700-
SOUTHEAST WISCONSIN

CITY           SKY/WX    TMP DP  RH WIND       PRES   REMARKS
MILWAUKEE      CLOUDY    38  33  82 NW7       29.88S WCI  33
WAUKESHA       CLOUDY    34  32  93 NW5       29.89S FOG     WCI  30
MILWAUKEE/TIMM CLOUDY    36  32  87 NW7       29.88F FOG     WCI  30
RACINE         CLOUDY    36  32  85 NW5       29.90S WCI  32
KENOSHA        CLOUDY    36  32  85 NW7       29.88F WCI  30
FOND DU LAC    CLOUDY    37  33  85 NW7       29.87S WCI  32
SHEBOYGAN      CLOUDY    36  34  92 W6        29.87R WCI  31
WEST BEND      CLOUDY    36  34  93 NW6       29.86F WCI  31
JUNEAU         CLOUDY    34  33  95 NW5       29.87F WCI  30
$$

LSZ147-162-241700-
LAKE SUPERIOR

STATION/POSITION TIME  TEMP    WIND        PRES    WAVE
                       AIR SEA DIR/SP/G            HT/PER
                 (UTC) (F)     (DEG/KT/KT) (MB)    (FT/S)
DEVILS ISLAND    1600   34     260/  4/  5 1012.3S
PORT WING        1540   34     230/  3/  5 1012.2S
SAXON HARBOR     1530   35     230/  2/  5 1011.9S
$$

LMZ867-665-643>646-241700-
LAKE MICHIGAN

STATION/POSITION TIME  TEMP    WIND        PRES    WAVE
                       AIR SEA DIR/SP/G            HT/PER
                 (UTC) (F)     (DEG/KT/KT) (MB)    (FT/S)
NORTHPORT PIER   1540   36     300/  8/ 12 1010.5R
SISTER BAY       1520   34        CALM       N/A
ALGOMA LAKESHORE 1409             CALM       N/A
KEWAUNEE LAKESHO 1554   37     310/  3/  6 1010.5R
SHEBOYGAN LAKESH 1600   36     270/  8/ 10 1011.8R
PORT WASHINGTON  1540   37     260/  4/  6 1012.9R
KENOSHA   LAKESH 1600   36     320/  7/ 12 1012.2
$$

TC  - TEMPERATURE IN CELSIUS
VSB - VISIBILITY IN STATUTE MILES
WCI - WIND CHILL INDEX
HX  - HEAT INDEX





USA.gov is the U.S. government's official web portal to all federal, state and local government web resources and services.